Overview Statistics Trail Chart Weather Telemetry Raw packets
 

This is the latest recevied weather packets stored in our database for station/object WE1C. If no packets are shown the sender has not sent any weather packets the latest 10 day(s).

<< 92 93 94 95 96 97 98 >>
Time Temp. Humidity Pressure Rain* Wind** Luminosity Snow
1787926154 22.78° C 92% 1045.3 hPa 0 mm - 170 W/m² -
1787925854 22.78° C 92% 1045.2 hPa 0 mm - 168 W/m² -
1787925553 23.33° C 91% 1045 hPa 0 mm - 312 W/m² -
1787925249 22.78° C 92% 1045.3 hPa 0 mm - 337 W/m² -
1787924948 22.78° C 93% 1045.2 hPa 0 mm - 244 W/m² -
1787924642 22.78° C 93% 1045.2 hPa 0 mm - 263 W/m² -
1787924337 22.78° C 93% 1045.1 hPa 0 mm - 213 W/m² -
1787924032 22.78° C 93% 1045.2 hPa 0 mm - 263 W/m² -
1787923727 22.22° C 95% 1045.4 hPa 0 mm - 228 W/m² -
1787923422 22.22° C 96% 1045.2 hPa 0 mm - 243 W/m² -
1787923117 21.67° C 97% 1045.1 hPa 0 mm - 311 W/m² -
1787922812 21.67° C 97% 1045 hPa 0 mm - 251 W/m² -
1787922511 21.11° C 99% 1045 hPa 0 mm - 163 W/m² -
1787922211 21.11° C 99% 1044.9 hPa 0 mm - 114 W/m² -
1787921908 21.11° C 99% 1045 hPa 0 mm - 139 W/m² -
1787921603 21.11° C 99% 1044.9 hPa 0 mm - 145 W/m² -
1787921302 21.11° C 99% 1045.1 hPa 0 mm - 140 W/m² -
1787920999 20.56° C 99% 1044.8 hPa 0 mm - 155 W/m² -
1787920694 20.56° C 99% 1044.7 hPa 0 mm - 143 W/m² -
1787920393 20.56° C 99% 1044.9 hPa 0 mm - 150 W/m² -
1787920090 20.56° C 99% 1044.6 hPa 0 mm - 141 W/m² -
1787919785 20° C 99% 1045.1 hPa 0 mm - 132 W/m² -
1787919484 20° C 99% 1044.8 hPa 0 mm - 102 W/m² -
1787919181 20° C 99% 1044.7 hPa 0 mm - 55 W/m² -
1787918880 20° C 99% 1044.8 hPa 0 mm - 52 W/m² -

* Rain latest hour (hover to see other rain measurements)
** Current wind speed in m/s (hover to see current wind gust speed)